When you browse on this site, cookies collect data to enhance your experience and personalize the content and advertising you see.
Visit our Privacy Policy to learn more. By continuing to use the site, you agree to this use of cookies and data.
  • In Austria
  • List of Countries
  • For 7 days
  • Water Temperature
  • Satellite Maps
  • Weather Map
  • News
  • Weather Widgets
  • user-avatar
    Login

    Hourly Weather Punta Gorda

    Today, 20 April, Saturday

    Time Temperature Precipitation Wind Pressure Humidity
    00:00 +27°C° 0.1 mm 4 mps 762 mmHg 63%
    01:00 +26°C° 0.5 mm 4 mps 763 mmHg 73%
    02:00 +25°C° 0.5 mm 3 mps 763 mmHg 83%
    03:00 +22°C° 0.5 mm 3 mps 763 mmHg 94%
    04:00 +22°C° 0.1 mm 3 mps 763 mmHg 93%
    05:00 +22°C° 0.1 mm 3 mps 763 mmHg 93%
    06:00 +22°C° 0.1 mm 3 mps 764 mmHg 93%
    07:00 +25°C° 0 mm 2 mps 764 mmHg 77%
    08:00 +28°C° 0 mm 2 mps 764 mmHg 62%
    09:00 +30°C° 0 mm 2 mps 765 mmHg 46%
    10:00 +32°C° 0 mm 2 mps 765 mmHg 40%
    11:00 +35°C° 0 mm 2 mps 764 mmHg 33%
    12:00 +37°C° 0 mm 3 mps 764 mmHg 26%
    13:00 +36°C° 0 mm 3 mps 763 mmHg 30%
    14:00 +35°C° 0 mm 4 mps 762 mmHg 33%
    15:00 +34°C° 0 mm 5 mps 761 mmHg 37%
    16:00 +32°C° 0 mm 4 mps 761 mmHg 45%
    17:00 +29°C° 0 mm 4 mps 761 mmHg 52%
    18:00 +27°C° 0 mm 3 mps 761 mmHg 60%
    19:00 +26°C° 0 mm 3 mps 762 mmHg 64%
    20:00 +25°C° 0 mm 2 mps 763 mmHg 68%
    21:00 +24°C° 0 mm 2 mps 763 mmHg 73%
    22:00 +24°C° 0 mm 1 mps 763 mmHg 75%
    23:00 +23°C° 0 mm 1 mps 763 mmHg 76%

    Tomorrow, 21 April, Sunday

    Time Temperature Precipitation Wind Pressure Humidity
    00:00 +23°C° 0 mm 1 mps 763 mmHg 78%
    01:00 +22°C° 0 mm 1 mps 763 mmHg 80%
    02:00 +22°C° 0 mm 1 mps 763 mmHg 81%
    03:00 +22°C° 0 mm 1 mps 762 mmHg 82%
    04:00 +22°C° 0 mm 1 mps 763 mmHg 82%
    05:00 +22°C° 0 mm 1 mps 763 mmHg 82%
    06:00 +22°C° 0 mm 1 mps 763 mmHg 82%
    07:00 +25°C° 0 mm 1 mps 763 mmHg 71%
    08:00 +28°C° 0 mm 1 mps 764 mmHg 61%
    09:00 +31°C° 0 mm 1 mps 764 mmHg 51%
    10:00 +31°C° 0 mm 1 mps 763 mmHg 49%
    11:00 +32°C° 0 mm 2 mps 763 mmHg 46%
    12:00 +34°C° 0 mm 3 mps 762 mmHg 44%
    13:00 +34°C° 0 mm 3 mps 762 mmHg 47%
    14:00 +33°C° 0 mm 4 mps 761 mmHg 49%
    15:00 +33°C° 0 mm 4 mps 760 mmHg 52%
    16:00 +32°C° 0 mm 4 mps 760 mmHg 57%
    17:00 +29°C° 0 mm 4 mps 761 mmHg 63%
    18:00 +28°C° 0 mm 4 mps 761 mmHg 68%
    19:00 +27°C° 0 mm 4 mps 762 mmHg 72%
    20:00 +26°C° 0 mm 3 mps 762 mmHg 76%
    21:00 +25°C° 0 mm 3 mps 763 mmHg 79%
    22:00 +25°C° 0 mm 3 mps 763 mmHg 80%
    23:00 +24°C° 0 mm 2 mps 763 mmHg 82%

    Day after tomorrow, 22 April, Monday

    Time Temperature Precipitation Wind Pressure Humidity
    00:00 +24°C° 0 mm 2 mps 762 mmHg 83%
    01:00 +24°C° 0 mm 1 mps 762 mmHg 83%
    02:00 +23°C° 0 mm 1 mps 761 mmHg 83%
    03:00 +23°C° 0 mm 1 mps 761 mmHg 84%
    04:00 +23°C° 0 mm 1 mps 761 mmHg 84%
    05:00 +24°C° 0 mm 1 mps 761 mmHg 84%
    06:00 +24°C° 0 mm 1 mps 761 mmHg 84%
    07:00 +26°C° 0 mm 1 mps 761 mmHg 78%
    08:00 +28°C° 0 mm 1 mps 762 mmHg 71%
    09:00 +30°C° 0 mm 1 mps 762 mmHg 64%
    10:00 +31°C° 0 mm 1 mps 761 mmHg 59%
    11:00 +34°C° 0 mm 2 mps 761 mmHg 54%
    12:00 +35°C° 0 mm 2 mps 760 mmHg 49%
    13:00 +35°C° 0 mm 3 mps 760 mmHg 49%
    14:00 +35°C° 0 mm 4 mps 759 mmHg 48%
    15:00 +35°C° 0 mm 5 mps 758 mmHg 48%
    16:00 +34°C° 0 mm 5 mps 758 mmHg 53%
    17:00 +32°C° 0 mm 4 mps 759 mmHg 59%
    18:00 +30°C° 0 mm 4 mps 759 mmHg 65%
    19:00 +29°C° 0 mm 4 mps 759 mmHg 71%
    20:00 +28°C° 0 mm 4 mps 760 mmHg 77%
    21:00 +27°C° 0 mm 4 mps 761 mmHg 84%
    22:00 +27°C° 0.2 mm 3 mps 761 mmHg 87%
    23:00 +26°C° 0.2 mm 3 mps 760 mmHg 90%

    23 April, Tuesday

    Time Temperature Precipitation Wind Pressure Humidity
    00:00 +26°C° 0.2 mm 3 mps 760 mmHg 93%
    01:00 +26°C° 0.3 mm 2 mps 760 mmHg 94%
    02:00 +26°C° 0.3 mm 2 mps 759 mmHg 95%
    03:00 +26°C° 0.3 mm 2 mps 759 mmHg 96%
    04:00 +26°C° 0.3 mm 2 mps 759 mmHg 96%
    05:00 +25°C° 0.3 mm 1 mps 759 mmHg 96%
    06:00 +25°C° 0.3 mm 1 mps 760 mmHg 96%
    07:00 +27°C° 0.2 mm 2 mps 760 mmHg 86%
    08:00 +29°C° 0.2 mm 2 mps 760 mmHg 77%
    09:00 +31°C° 0.2 mm 2 mps 760 mmHg 67%
    10:00 +33°C° 0 mm 3 mps 760 mmHg 61%
    11:00 +34°C° 0 mm 4 mps 759 mmHg 55%
    12:00 +35°C° 0 mm 4 mps 759 mmHg 49%
    13:00 +35°C° 0 mm 4 mps 758 mmHg 49%
    14:00 +35°C° 0 mm 5 mps 757 mmHg 48%
    15:00 +35°C° 0 mm 5 mps 757 mmHg 48%
    16:00 +33°C° 0 mm 5 mps 757 mmHg 55%
    17:00 +32°C° 0 mm 5 mps 757 mmHg 62%
    18:00 +30°C° 0 mm 5 mps 758 mmHg 69%
    19:00 +29°C° 0 mm 4 mps 758 mmHg 75%
    20:00 +28°C° 0 mm 4 mps 759 mmHg 80%
    21:00 +27°C° 0 mm 4 mps 759 mmHg 86%
    22:00 +27°C° 0.1 mm 3 mps 759 mmHg 88%
    23:00 +26°C° 0.1 mm 3 mps 759 mmHg 90%

    24 April, Wednesday

    Time Temperature Precipitation Wind Pressure Humidity
    00:00 +26°C° 0.1 mm 3 mps 759 mmHg 92%
    01:00 +26°C° 0.2 mm 3 mps 759 mmHg 93%
    02:00 +26°C° 0.2 mm 2 mps 758 mmHg 94%
    03:00 +26°C° 0.2 mm 2 mps 758 mmHg 95%
    04:00 +26°C° 0.1 mm 2 mps 758 mmHg 95%
    05:00 +26°C° 0.1 mm 1 mps 758 mmHg 96%
    06:00 +25°C° 0.1 mm 1 mps 759 mmHg 96%
    07:00 +27°C° 0.1 mm 1 mps 759 mmHg 86%
    08:00 +29°C° 0.1 mm 1 mps 759 mmHg 75%
    09:00 +31°C° 0.1 mm 2 mps 759 mmHg 64%
    10:00 +34°C° 0 mm 2 mps 759 mmHg 59%
    11:00 +35°C° 0 mm 3 mps 758 mmHg 54%
    12:00 +36°C° 0 mm 3 mps 757 mmHg 48%
    13:00 +36°C° 0 mm 4 mps 757 mmHg 47%
    14:00 +36°C° 0 mm 4 mps 756 mmHg 47%
    15:00 +36°C° 0 mm 4 mps 755 mmHg 46%
    16:00 +34°C° 0 mm 5 mps 756 mmHg 53%
    17:00 +33°C° 0 mm 5 mps 756 mmHg 60%
    18:00 +30°C° 0 mm 5 mps 756 mmHg 68%
    19:00 +29°C° 0 mm 4 mps 757 mmHg 74%
    20:00 +28°C° 0 mm 4 mps 757 mmHg 80%
    21:00 +27°C° 0 mm 3 mps 758 mmHg 87%
    22:00 +27°C° 0 mm 3 mps 757 mmHg 87%
    23:00 +27°C° 0 mm 3 mps 757 mmHg 88%

    25 April, Thursday

    Time Temperature Precipitation Wind Pressure Humidity
    00:00 +27°C° 0 mm 2 mps 757 mmHg 89%
    01:00 +27°C° 0.1 mm 2 mps 757 mmHg 90%
    02:00 +27°C° 0.1 mm 2 mps 757 mmHg 91%
    03:00 +26°C° 0.1 mm 1 mps 756 mmHg 92%
    04:00 +26°C° 0.1 mm 1 mps 757 mmHg 93%
    05:00 +26°C° 0.1 mm 1 mps 757 mmHg 94%
    06:00 +26°C° 0.1 mm 1 mps 758 mmHg 95%
    07:00 +29°C° 0 mm 1 mps 758 mmHg 83%
    08:00 +31°C° 0 mm 1 mps 758 mmHg 71%
    09:00 +34°C° 0 mm 1 mps 758 mmHg 59%
    10:00 +35°C° 0 mm 1 mps 758 mmHg 54%
    11:00 +37°C° 0 mm 2 mps 757 mmHg 48%
    12:00 +39°C° 0 mm 2 mps 757 mmHg 43%
    13:00 +39°C° 0 mm 3 mps 756 mmHg 43%
    14:00 +39°C° 0 mm 3 mps 755 mmHg 42%
    15:00 +40°C° 0 mm 4 mps 755 mmHg 42%
    16:00 +37°C° 0 mm 4 mps 755 mmHg 49%
    17:00 +35°C° 0 mm 4 mps 756 mmHg 56%
    18:00 +33°C° 0 mm 5 mps 756 mmHg 63%
    19:00 +32°C° 0 mm 4 mps 757 mmHg 68%
    20:00 +30°C° 0 mm 4 mps 757 mmHg 74%
    21:00 +29°C° 0 mm 4 mps 758 mmHg 79%
    22:00 +28°C° 0 mm 3 mps 758 mmHg 82%
    23:00 +28°C° 0 mm 3 mps 758 mmHg 85%
    Show more